SAVIL Weather Reports


Display with metric or nautical units.
time (UTC)temp
F
wind
direction
speed
MPH
gust
MPH
rain 1hr
in
rain 24hr
in
rain mn
in
humidity
%
barometer
mb
20260507042721 39 174 4.0 5.0 0.00 0.00 0.00 73 1015.9
20260507040721 38 171 4.0 6.0 0.00 0.00 0.00 75 1016.0
20260507034721 37 167 2.0 3.0 0.00 0.00 0.00 75 1016.0
20260507032721 37 160 2.0 4.0 0.00 0.00 0.00 72 1015.9
20260507030721 35 164 1.0 2.0 0.00 0.00 0.00 79 1015.7
20260507023051 31 17 2.0 2.0 0.00 0.00 0.00 92 1015.5
20260507021050 31 307 1.0 3.0 0.00 0.00 0.00 91 1015.4
20260507015050 33 127 1.0 2.0 0.00 0.00 0.00 88 1015.2
20260507013049 31 90 1.0 2.0 0.00 0.00 0.00 89 1015.1
20260507010720 33 332 2.0 3.0 0.00 0.00 0.00 88 1015.0
20260507004720 32 340 1.0 2.0 0.00 0.00 0.00 89 1014.9
20260507002720 33 338 1.0 3.0 0.00 0.00 0.00 87 1014.9
20260507000721 33 326 2.0 3.0 0.00 0.00 0.00 87 1014.8
20260506234720 33 327 1.0 3.0 0.00 0.00 0.00 89 1014.7
20260506232720 33 329 1.0 2.0 0.00 0.00 0.00 83 1014.5
20260506230720 33 54 1.0 2.0 0.00 0.00 0.00 83 1014.4
20260506223049 34 126 1.0 2.0 0.00 0.00 0.00 84 1014.1
20260506220720 34 111 1.0 1.0 0.00 0.00 0.00 86 1013.9
20260506214720 35 75 1.0 2.0 0.00 0.00 0.00 79 1013.7
20260506205048 37 147 1.0 2.0 0.00 0.00 0.00 76 1013.3
20260506202719 37 154 2.0 4.0 0.00 0.00 0.00 76 1013.2
20260506200719 37 172 1.0 2.0 0.00 0.00 0.00 74 1013.1
20260506194719 38 167 1.0 2.0 0.00 0.00 0.00 71 1012.8
20260506191048 40 224 1.0 3.0 0.00 0.00 0.00 63 1012.5
20260506182719 44 313 5.0 8.0 0.00 0.00 0.00 58 1012.2
20260506180719 44 326 6.0 12.0 0.00 0.00 0.00 56 1012.0
20260506173047 46 289 3.0 5.0 0.00 0.00 0.00 44 1011.5
20260506171048 47 299 5.0 8.0 0.00 0.00 0.00 42 1011.4
20260506165047 47 309 6.0 11.0 0.00 0.00 0.00 41 1011.3
20260506163048 48 303 6.0 13.0 0.00 0.00 0.00 41 1011.0
20260506154719 47 321 9.0 17.0 0.00 0.00 0.00 40 1010.8
20260506150718 47 322 8.0 15.0 0.00 0.00 0.00 42 1010.6
20260506144718 48 328 10.0 17.0 0.00 0.00 0.00 40 1010.4
20260506142718 47 317 7.0 13.0 0.00 0.00 0.00 45 1010.4
20260506134718 47 305 9.0 17.0 0.00 0.00 0.00 35 1009.8
20260506132718 48 291 11.0 21.0 0.00 0.00 0.00 33 1009.6
20260506125046 49 307 7.0 15.0 0.00 0.00 0.00 34 1009.3
20260506123046 46 285 14.0 26.0 0.00 0.00 0.00 39 1009.4
20260506121047 48 276 8.0 19.0 0.00 0.00 0.00 31 1009.1
20260506115047 46 284 11.0 24.0 0.00 0.00 0.00 35 1009.1
20260506114718 47 259 9.0 23.0 0.00 0.00 0.00 32 1008.8
20260506112718 49 291 9.0 16.0 0.00 0.00 0.00 35 1008.7
20260506110718 48 272 12.0 21.0 0.00 0.00 0.00 32 1008.6
20260506104718 50 240 13.0 24.0 0.00 0.00 0.00 35 1008.2
20260506102718 48 287 11.0 19.0 0.00 0.00 0.00 36 1008.3
20260506100718 48 279 8.0 15.0 0.00 0.00 0.00 37 1007.9
20260506094718 46 279 8.0 14.0 0.00 0.00 0.00 40 1007.8
20260506092717 46 276 9.0 17.0 0.00 0.00 0.00 38 1007.6
20260506090717 46 260 10.0 18.0 0.00 0.00 0.00 41 1007.5
20260506084717 46 266 11.0 21.0 0.00 0.00 0.00 39 1007.2
20260506082717 46 262 12.0 26.0 0.00 0.00 0.00 40 1007.1
20260506080717 46 248 11.0 21.0 0.00 0.00 0.00 43 1006.8
20260506072717 44 272 11.0 21.0 0.00 0.03 0.00 46 1006.5
20260506070717 44 258 11.0 20.0 0.00 0.03 0.00 47 1006.4
20260506060717 42 254 11.0 19.0 0.00 0.04 0.00 51 1005.8
20260506050717 40 268 7.0 14.0 0.00 0.04 0.00 60 1005.4
20260506044717 39 253 7.0 13.0 0.00 0.04 0.00 63 1005.3